Regional Weather Roundup
Issued by NWS Newport/Morehead, NC

Current Version | Previous Version | Text Only | Print | Product List | Glossary On
Versions: 1 2 3 4 5 6 7 8 9 10 11 12 13 14 15 16 17 18 19 20 21 22 23 24 25 26 27 28 29 30 31 32 33 34 35 36 37 38 39 40 41 42 43 44 45 46 47 48 49 50
000
ASUS42 KMHX 292013
RWRMHX
WEATHER ROUNDUP FOR EASTERN NORTH CAROLINA
NATIONAL WEATHER SERVICE NEWPORT/MOREHEAD CITY NC
400 PM EDT SAT APR 29 2017

NOTE: "FAIR" INDICATES FEW OR NO CLOUDS BELOW 12,000 FEET
WITH NO SIGNIFICANT WEATHER AND/OR OBSTRUCTIONS TO VISIBILITY

NCZ015>017-031-032-045>047-102-103-292100-
NORTH COAST

CITY           SKY/WX    TMP DP  RH WIND       PRES   REMARKS
EDENTON        MOSUNNY   88  71  57 SW7       30.14F
ELIZABETH CITY LGT RAIN  87  74  64 SW17      30.12F
KITTY HAWK     CLEAR     86  70  58 CALM      30.13F
MANTEO         MOSUNNY   82  72  73 S21       30.15F

$$

NCZ045>047-081-094-103-104-292100-
CENTRAL COAST

CITY           SKY/WX    TMP DP  RH WIND       PRES   REMARKS
FRISCO         SUNNY     81  72  74 SW12G18   30.20F HAZE

$$

NCZ095-097-098-100-101-292100-
SOUTHERN COAST

CITY           SKY/WX    TMP DP  RH WIND       PRES   REMARKS
BEAUFORT       SUNNY     79  73  82 S18G26    30.20F
CEDAR ISLAND   NOT AVBL
JACKSONVILLE   SUNNY     84  74  71 S14G22    30.17F
PINEY ISLAND   CLEAR    N/A N/A N/A SW20G28   30.19S
WILMINGTON     PTSUNNY   83  70  64 S16G24    30.19F


$$

NCZ011>013-027>030-043-044-078>080-089-090>093-098-292100-
COASTAL PLAIN

CITY           SKY/WX    TMP DP  RH WIND       PRES   REMARKS
AHOSKIE          N/A     85  71  63 S7        30.13F
CLINTON        SUNNY     89  70  53 S5        30.15F
ELIZABETHTOWN  MOSUNNY   88  69  52 S9        30.16F
GOLDSBORO      SUNNY     89  71  55 S6        30.13F
GREENVILLE     PTSUNNY   88  70  55 SW8       30.16F
HAVELOCK       MOSUNNY   84  72  67 SW13G23   30.19F
KENANSVILLE    MOSUNNY   88  68  51 S5        30.16F
KINSTON        PTSUNNY   90  68  48 S10       30.16F
NEW BERN       MOSUNNY   87  72  60 SW10      30.17F
RICHLANDS      MOSUNNY   88  70  55 S14       30.16F
ROCKY MOUNT    MOSUNNY   87  71  58 S14       30.14F
WASHINGTON     MOSUNNY   86  70  58 SW6       30.15F
WHITEVILLE     MOSUNNY   85  71  63 SE13      30.17S

$$

AMZ130-135-150-152-154-156-158-170-250-252-270-ANZ085-086-088-633-658-670-292100-
MARINE OBSERVATIONS

STATION/POSITION TIME  TEMP    WIND        PRES    WAVE   SWELL
                       AIR SEA DIR/SP/G            HT/PER HT/PER
                 (UTC) (F)     (DEG/KT/KT) (MB)    (FT/S) (FT/S)
CHESAPEAKE LIGHT NOT AVBL
64 E VA BEACH    1950   63 58  200/ 14/ 16 1020.9    3/ 5   2/ 7
DUCK             1948   83 57  200/ 11/ 14 1019.7
2 E DUCK         1930      62                N/A     2/ 8
OREGON INLET     1936   76 78  190/ 21/ 24 1021.3
13E OREGON INLT  1948      64                N/A     3/ 6   2/ 8
HATTERAS CG      1948   77 74  200/ 12/ 16 1022.4
DIAMOND BUOY     1950   77 76  210/ 16/ 17 1022.9    4/ 4   2/ 8
CAPE LOOKOUT     2000   77     210/ 13/ 15 1022.5
BEAUFORT LAB     1948   76 72  200/ 16/ 21 1021.8
30 SE NEW RVR IN 1908   74     210/ 10/ 14 1023.6
30 SE NEW RVR IN 1943      73                N/A     4/ 8
27 SE WRIGHTSVLE 1908   75 74  190/ 10/ 14 1023.4
5 SE WRIGHTSVLE  1908   74 72  180/  8/ 12 1023.3
225 S CAPE HAT   1950   75 76  160/ 10/ 12 1024.7    3/ 7   3/ 7
41 SE CHARLESTON 1950   77 76  170/  8/  8 1023.1    4/ 6   3/ 6

$$




USA.gov is the U.S. government's official web portal to all federal, state and local government web resources and services.